Tracking 30995 objects as of 5-Jul-2025
HD Live streaming from Space Station
objects crossing your sky now

NOAA 16 DEB

Track NOAA 16 DEB now!
10-day predictions


NORAD ID: 41402
Int'l Code: 2000-055KF
Perigee: 820.8 km
Apogee: 867.2 km
Inclination: 98.7 °
Period: 101.7 minutes
Semi major axis: 7214 km
RCS: Unknown
Launch date: September 21, 2000
Source: United States (US)
Launch site: AIR FORCE WESTERN TEST RANGE (AFWTR)

Note: This is SATELLITE DEBRIS
Your satellite tracking list
Your tracking list is empty




NASA's NSSDC Master Catalog

Two Line Element Set (TLE):
1 41402U 00055KF  25186.55442419  .00002183  00000-0  11098-2 0  9992
2 41402  98.7035 217.9138 0032157 158.9621 201.2885 14.16617390483252
Source of the keplerian elements: AFSPC